Location: Baia Mare
(47.6567°N, 23.5850°E)
Time: 23:45:05
(UTC+03:00)

ISS - Pass Details

Date: 12 September 2019
Orbit: 411 x 421 km, 51.6° (Epoch: 19 September)

Event Time Altitude Azimuth Distance (km) Brightness Sun altitude
Exits shadow 04:10:41 25° 68° (ENE) 882 -1.5 -26.2°
Drops below altitude 10° 04:12:22 10° 83° (E) 1,491 -0.3 -26.0°
Sets 04:14:31 0° 91° (E) 2,355 0.8 -25.8°
